Time,TemperatureF,DewpointF,PressureIn,WindDirection,WindDirectionDegrees,WindSpeedMPH,WindSpeedGustMPH,Humidity,HourlyPrecipIn,Conditions,Clouds,dailyrainin,SoftwareType,DateUTC
2013-02-13 00:01:00,39.0,10.0,-100.00,North,5,6.0,8.0,30,-99.99,,,-99.99,,2013-02-13 08:01:00,
2013-02-13 00:11:00,40.0,10.0,-100.00,North,6,6.0,8.0,29,-99.99,,,-99.99,,2013-02-13 08:11:00,
2013-02-13 00:21:00,39.0,10.0,-100.00,NNE,16,5.0,8.0,30,-99.99,,,-99.99,,2013-02-13 08:21:00,
2013-02-13 00:31:00,39.0,10.0,-100.00,North,7,7.0,10.0,30,-99.99,,,-99.99,,2013-02-13 08:31:00,
2013-02-13 00:42:00,40.0,10.0,-100.00,NNE,17,8.0,11.0,29,-99.99,,,-99.99,,2013-02-13 08:42:00,
2013-02-13 00:52:00,40.0,10.0,-100.00,North,353,7.0,11.0,29,-99.99,,,-99.99,,2013-02-13 08:52:00,
2013-02-13 01:01:00,39.0,9.0,-100.00,North,349,6.0,9.0,29,-99.99,,,-99.99,,2013-02-13 09:01:00,
2013-02-13 01:11:00,39.0,10.0,-100.00,North,356,6.0,9.0,30,-99.99,,,-99.99,,2013-02-13 09:11:00,
2013-02-13 01:21:00,39.0,10.0,-100.00,North,10,4.0,7.0,30,-99.99,,,-99.99,,2013-02-13 09:21:00,
2013-02-13 01:31:00,39.0,10.0,-100.00,North,8,4.0,7.0,30,-99.99,,,-99.99,,2013-02-13 09:31:00,
2013-02-13 01:41:00,39.0,9.0,-100.00,North,354,5.0,9.0,29,-99.99,,,-99.99,,2013-02-13 09:41:00,
2013-02-13 01:51:00,41.0,9.0,-100.00,North,355,5.0,8.0,26,-99.99,,,-99.99,,2013-02-13 09:51:00,
2013-02-13 02:01:00,41.0,9.0,-100.00,North,355,5.0,8.0,26,-99.99,,,-99.99,,2013-02-13 10:01:00,
2013-02-13 02:11:00,41.0,8.0,-100.00,North,349,5.0,8.0,25,-99.99,,,-99.99,,2013-02-13 10:11:00,
2013-02-13 02:21:00,41.0,9.0,-100.00,NNW,345,5.0,9.0,26,-99.99,,,-99.99,,2013-02-13 10:21:00,
2013-02-13 02:31:00,41.0,8.0,-100.00,North,2,4.0,7.0,25,-99.99,,,-99.99,,2013-02-13 10:31:00,
2013-02-13 02:41:00,41.0,8.0,-100.00,North,357,5.0,7.0,25,-99.99,,,-99.99,,2013-02-13 10:41:00,
2013-02-13 02:51:00,41.0,8.0,-100.00,NNE,16,6.0,10.0,25,-99.99,,,-99.99,,2013-02-13 10:51:00,
2013-02-13 03:01:00,41.0,8.0,-100.00,NNE,21,8.0,12.0,25,-99.99,,,-99.99,,2013-02-13 11:01:00,
2013-02-13 03:11:00,42.0,8.0,-100.00,NNE,26,9.0,14.0,24,-99.99,,,-99.99,,2013-02-13 11:11:00,
2013-02-13 03:22:00,41.0,9.0,-100.00,NNE,22,8.0,13.0,26,-99.99,,,-99.99,,2013-02-13 11:22:00,
2013-02-13 03:31:00,41.0,9.0,-100.00,NNE,17,8.0,13.0,26,-99.99,,,-99.99,,2013-02-13 11:31:00,
2013-02-13 03:42:00,42.0,8.0,-100.00,NNE,18,11.0,18.0,24,-99.99,,,-99.99,,2013-02-13 11:42:00,
2013-02-13 03:52:00,43.0,8.0,-100.00,North,11,10.0,14.0,23,-99.99,,,-99.99,,2013-02-13 11:52:00,
2013-02-13 04:02:00,43.0,8.0,-100.00,North,11,10.0,14.0,23,-99.99,,,-99.99,,2013-02-13 12:02:00,
2013-02-13 04:11:00,43.0,8.0,-100.00,NNE,14,10.0,15.0,23,-99.99,,,-99.99,,2013-02-13 12:11:00,
2013-02-13 04:21:00,42.0,8.0,-100.00,NNE,16,9.0,13.0,24,-99.99,,,-99.99,,2013-02-13 12:21:00,
2013-02-13 04:31:00,42.0,9.0,-100.00,NNE,20,8.0,12.0,25,-99.99,,,-99.99,,2013-02-13 12:31:00,
2013-02-13 04:42:00,42.0,9.0,-100.00,NNE,19,7.0,9.0,25,-99.99,,,-99.99,,2013-02-13 12:42:00,
2013-02-13 04:52:00,42.0,8.0,-100.00,NNE,17,6.0,8.0,24,-99.99,,,-99.99,,2013-02-13 12:52:00,
2013-02-13 05:02:00,42.0,9.0,-100.00,NNE,24,5.0,7.0,25,-99.99,,,-99.99,,2013-02-13 13:02:00,
2013-02-13 05:11:00,40.0,10.0,-100.00,NNE,20,5.0,7.0,28,-99.99,,,-99.99,,2013-02-13 13:11:00,
2013-02-13 05:21:00,42.0,9.0,-100.00,NNE,15,6.0,10.0,25,-99.99,,,-99.99,,2013-02-13 13:21:00,
2013-02-13 05:31:00,42.0,8.0,-100.00,NNE,14,6.0,7.0,24,-99.99,,,-99.99,,2013-02-13 13:31:00,
2013-02-13 05:41:00,43.0,8.0,-100.00,North,8,8.0,11.0,23,-99.99,,,-99.99,,2013-02-13 13:41:00,
2013-02-13 05:51:00,43.0,8.0,-100.00,NNE,14,7.0,12.0,23,-99.99,,,-99.99,,2013-02-13 13:51:00,
2013-02-13 06:01:00,43.0,9.0,-100.00,North,11,7.0,9.0,24,-99.99,,,-99.99,,2013-02-13 14:01:00,
2013-02-13 06:11:00,42.0,9.0,-100.00,NNE,12,8.0,12.0,25,-99.99,,,-99.99,,2013-02-13 14:11:00,
2013-02-13 06:21:00,42.0,9.0,-100.00,North,7,9.0,12.0,25,-99.99,,,-99.99,,2013-02-13 14:21:00,
2013-02-13 06:31:00,43.0,9.0,-100.00,North,7,9.0,12.0,24,-99.99,,,-99.99,,2013-02-13 14:31:00,
2013-02-13 06:41:00,43.0,10.0,-100.00,North,1,7.0,10.0,25,-99.99,,,-99.99,,2013-02-13 14:41:00,
2013-02-13 06:52:00,42.0,10.0,-100.00,North,356,8.0,11.0,26,-99.99,,,-99.99,,2013-02-13 14:52:00,
2013-02-13 07:01:00,42.0,10.0,-100.00,North,356,8.0,11.0,26,-99.99,,,-99.99,,2013-02-13 15:01:00,
2013-02-13 07:11:00,43.0,10.0,-100.00,North,9,9.0,13.0,26,-99.99,,,-99.99,,2013-02-13 15:11:00,
2013-02-13 07:21:00,43.0,11.0,-100.00,North,11,8.0,11.0,27,-99.99,,,-99.99,,2013-02-13 15:21:00,
2013-02-13 07:32:00,43.0,11.0,-100.00,North,358,7.0,10.0,27,-99.99,,,-99.99,,2013-02-13 15:32:00,
2013-02-13 07:41:00,42.0,11.0,-100.00,NNE,16,5.0,9.0,28,-99.99,,,-99.99,,2013-02-13 15:41:00,
2013-02-13 07:51:00,43.0,12.0,-100.00,NNE,26,3.0,7.0,28,-99.99,,,-99.99,,2013-02-13 15:51:00,
2013-02-13 08:01:00,43.0,12.0,-100.00,NNE,17,5.0,8.0,28,-99.99,,,-99.99,,2013-02-13 16:01:00,
2013-02-13 08:11:00,45.0,13.0,-100.00,NNE,14,5.0,8.0,27,-99.99,,,-99.99,,2013-02-13 16:11:00,
2013-02-13 08:21:00,46.0,14.0,-100.00,NNE,12,6.0,8.0,27,-99.99,,,-99.99,,2013-02-13 16:21:00,
2013-02-13 08:31:00,47.0,13.0,-100.00,North,2,8.0,13.0,25,-99.99,,,-99.99,,2013-02-13 16:31:00,
2013-02-13 08:41:00,48.0,13.0,-100.00,NNE,15,7.0,12.0,24,-99.99,,,-99.99,,2013-02-13 16:41:00,
2013-02-13 08:51:00,49.0,14.0,-100.00,NNE,28,7.0,13.0,24,-99.99,,,-99.99,,2013-02-13 16:51:00,
2013-02-13 09:01:00,49.0,14.0,-100.00,NNE,21,9.0,13.0,24,-99.99,,,-99.99,,2013-02-13 17:01:00,
2013-02-13 09:11:00,49.0,14.0,-100.00,North,5,8.0,12.0,24,-99.99,,,-99.99,,2013-02-13 17:11:00,
2013-02-13 09:21:00,49.0,14.0,-100.00,North,1,7.0,11.0,24,-99.99,,,-99.99,,2013-02-13 17:21:00,
2013-02-13 09:31:00,50.0,15.0,-100.00,North,7,6.0,11.0,24,-99.99,,,-99.99,,2013-02-13 17:31:00,
2013-02-13 09:41:00,50.0,15.0,-100.00,NNE,23,7.0,11.0,24,-99.99,,,-99.99,,2013-02-13 17:41:00,
2013-02-13 09:52:00,51.0,16.0,-100.00,NE,35,7.0,12.0,24,-99.99,,,-99.99,,2013-02-13 17:52:00,
2013-02-13 10:01:00,51.0,16.0,-100.00,NE,35,7.0,12.0,24,-99.99,,,-99.99,,2013-02-13 18:01:00,
2013-02-13 10:11:00,52.0,15.0,-100.00,NNE,27,11.0,16.0,23,-99.99,,,-99.99,,2013-02-13 18:11:00,
2013-02-13 10:22:00,52.0,15.0,-100.00,NNE,27,10.0,17.0,23,-99.99,,,-99.99,,2013-02-13 18:22:00,
2013-02-13 10:32:00,53.0,15.0,-100.00,NNE,33,10.0,17.0,22,-99.99,,,-99.99,,2013-02-13 18:32:00,
2013-02-13 10:41:00,53.0,15.0,-100.00,NE,41,9.0,15.0,22,-99.99,,,-99.99,,2013-02-13 18:41:00,
2013-02-13 10:51:00,53.0,15.0,-100.00,NE,37,9.0,14.0,22,-99.99,,,-99.99,,2013-02-13 18:51:00,
2013-02-13 11:01:00,53.0,15.0,-100.00,NE,37,9.0,14.0,22,-99.99,,,-99.99,,2013-02-13 19:01:00,
2013-02-13 11:11:00,54.0,15.0,-100.00,NE,37,7.0,13.0,21,-99.99,,,-99.99,,2013-02-13 19:11:00,
2013-02-13 11:21:00,54.0,16.0,-100.00,NE,40,6.0,13.0,22,-99.99,,,-99.99,,2013-02-13 19:21:00,
2013-02-13 11:31:00,55.0,17.0,-100.00,NE,56,5.0,11.0,22,-99.99,,,-99.99,,2013-02-13 19:31:00,
2013-02-13 11:41:00,55.0,16.0,-100.00,ENE,61,7.0,15.0,21,-99.99,,,-99.99,,2013-02-13 19:41:00,
2013-02-13 11:51:00,55.0,18.0,-100.00,SE,125,6.0,13.0,23,-99.99,,,-99.99,,2013-02-13 19:51:00,
2013-02-13 12:01:00,55.0,18.0,-100.00,SE,125,6.0,13.0,23,-99.99,,,-99.99,,2013-02-13 20:01:00,
2013-02-13 12:11:00,55.0,18.0,-100.00,SE,125,6.0,13.0,23,-99.99,,,-99.99,,2013-02-13 20:11:00,
2013-02-13 12:21:00,56.0,20.0,-100.00,SW,233,4.0,10.0,24,-99.99,,,-99.99,,2013-02-13 20:21:00,
2013-02-13 12:31:00,56.0,21.0,-100.00,WNW,290,3.0,9.0,25,-99.99,,,-99.99,,2013-02-13 20:31:00,
2013-02-13 12:41:00,56.0,20.0,-100.00,WNW,295,2.0,6.0,24,-99.99,,,-99.99,,2013-02-13 20:41:00,
2013-02-13 12:52:00,57.0,22.0,-100.00,WNW,283,3.0,7.0,25,-99.99,,,-99.99,,2013-02-13 20:52:00,
2013-02-13 13:01:00,56.0,21.0,-100.00,NNW,331,3.0,8.0,25,-99.99,,,-99.99,,2013-02-13 21:01:00,
2013-02-13 13:11:00,56.0,21.0,-100.00,WNW,301,3.0,7.0,25,-99.99,,,-99.99,,2013-02-13 21:11:00,
2013-02-13 13:21:00,56.0,22.0,-100.00,NW,313,3.0,6.0,26,-99.99,,,-99.99,,2013-02-13 21:21:00,
2013-02-13 13:31:00,55.0,22.0,-100.00,NW,309,4.0,8.0,27,-99.99,,,-99.99,,2013-02-13 21:31:00,
2013-02-13 13:42:00,56.0,22.0,-100.00,WNW,285,3.0,7.0,26,-99.99,,,-99.99,,2013-02-13 21:42:00,
2013-02-13 13:52:00,55.0,22.0,-100.00,West,281,3.0,7.0,27,-99.99,,,-99.99,,2013-02-13 21:52:00,
2013-02-13 14:02:00,55.0,22.0,-100.00,West,281,3.0,7.0,27,-99.99,,,-99.99,,2013-02-13 22:02:00,
2013-02-13 14:11:00,56.0,24.0,-100.00,WNW,302,2.0,6.0,29,-99.99,,,-99.99,,2013-02-13 22:11:00,
2013-02-13 14:21:00,56.0,23.0,-100.00,North,351,4.0,10.0,28,-99.99,,,-99.99,,2013-02-13 22:21:00,
2013-02-13 14:31:00,55.0,24.0,-100.00,NNW,346,5.0,9.0,30,-99.99,,,-99.99,,2013-02-13 22:31:00,
2013-02-13 14:42:00,55.0,25.0,-100.00,NNW,344,4.0,11.0,31,-99.99,,,-99.99,,2013-02-13 22:42:00,
2013-02-13 14:51:00,55.0,26.0,-100.00,NNW,348,4.0,11.0,32,-99.99,,,-99.99,,2013-02-13 22:51:00,
2013-02-13 15:01:00,55.0,26.0,-100.00,NNW,336,4.0,9.0,32,-99.99,,,-99.99,,2013-02-13 23:01:00,
2013-02-13 15:11:00,55.0,26.0,-100.00,NNW,327,4.0,9.0,32,-99.99,,,-99.99,,2013-02-13 23:11:00,
2013-02-13 15:21:00,55.0,26.0,-100.00,NW,326,4.0,9.0,33,-99.99,,,-99.99,,2013-02-13 23:21:00,
2013-02-13 15:31:00,54.0,26.0,-100.00,NW,319,4.0,9.0,33,-99.99,,,-99.99,,2013-02-13 23:31:00,
2013-02-13 15:41:00,54.0,26.0,-100.00,NW,325,4.0,8.0,34,-99.99,,,-99.99,,2013-02-13 23:41:00,
2013-02-13 15:52:00,54.0,27.0,-100.00,NW,323,3.0,7.0,35,-99.99,,,-99.99,,2013-02-13 23:52:00,
2013-02-13 16:01:00,54.0,28.0,-100.00,WNW,302,4.0,8.0,36,-99.99,,,-99.99,,2013-02-14 00:01:00,
2013-02-13 16:11:00,53.0,27.0,-100.00,NW,306,3.0,7.0,36,-99.99,,,-99.99,,2013-02-14 00:11:00,
2013-02-13 16:21:00,53.0,27.0,-100.00,NW,308,3.0,7.0,37,-99.99,,,-99.99,,2013-02-14 00:21:00,
2013-02-13 16:31:00,53.0,29.0,-100.00,NW,314,3.0,6.0,39,-99.99,,,-99.99,,2013-02-14 00:31:00,
2013-02-13 16:41:00,53.0,29.0,-100.00,NW,304,2.0,4.0,40,-99.99,,,-99.99,,2013-02-14 00:41:00,
2013-02-13 16:51:00,52.0,30.0,-100.00,WNW,298,2.0,6.0,43,-99.99,,,-99.99,,2013-02-14 00:51:00,
2013-02-13 17:01:00,51.0,30.0,-100.00,WNW,293,2.0,5.0,45,-99.99,,,-99.99,,2013-02-14 01:01:00,
2013-02-13 17:11:00,50.0,31.0,-100.00,West,281,2.0,5.0,47,-99.99,,,-99.99,,2013-02-14 01:11:00,
2013-02-13 17:21:00,50.0,31.0,-100.00,West,279,3.0,7.0,47,-99.99,,,-99.99,,2013-02-14 01:21:00,
2013-02-13 17:31:00,50.0,32.0,-100.00,West,266,2.0,5.0,49,-99.99,,,-99.99,,2013-02-14 01:31:00,
2013-02-13 17:41:00,50.0,32.0,-100.00,West,266,2.0,5.0,49,-99.99,,,-99.99,,2013-02-14 01:41:00,
2013-02-13 17:51:00,49.0,31.0,-100.00,WNW,289,3.0,5.0,50,-99.99,,,-99.99,,2013-02-14 01:51:00,
2013-02-13 18:01:00,49.0,32.0,-100.00,WNW,295,4.0,6.0,51,-99.99,,,-99.99,,2013-02-14 02:01:00,
2013-02-13 18:11:00,48.0,31.0,-100.00,NW,318,5.0,8.0,51,-99.99,,,-99.99,,2013-02-14 02:11:00,
2013-02-13 18:21:00,48.0,31.0,-100.00,NW,321,6.0,8.0,52,-99.99,,,-99.99,,2013-02-14 02:21:00,
2013-02-13 18:31:00,48.0,32.0,-100.00,NW,326,6.0,8.0,53,-99.99,,,-99.99,,2013-02-14 02:31:00,
2013-02-13 18:41:00,48.0,32.0,-100.00,NW,326,6.0,8.0,53,-99.99,,,-99.99,,2013-02-14 02:41:00,
2013-02-13 18:51:00,48.0,32.0,-100.00,NW,326,6.0,8.0,53,-99.99,,,-99.99,,2013-02-14 02:51:00,
2013-02-13 19:02:00,47.0,33.0,-100.00,NNW,330,5.0,7.0,57,-99.99,,,-99.99,,2013-02-14 03:02:00,
2013-02-13 19:11:00,47.0,33.0,-100.00,NW,323,6.0,8.0,57,-99.99,,,-99.99,,2013-02-14 03:11:00,
2013-02-13 19:21:00,47.0,33.0,-100.00,NW,322,6.0,7.0,58,-99.99,,,-99.99,,2013-02-14 03:21:00,
2013-02-13 19:31:00,47.0,33.0,-100.00,NNW,339,5.0,7.0,59,-99.99,,,-99.99,,2013-02-14 03:31:00,
2013-02-13 19:42:00,46.0,33.0,-100.00,North,352,4.0,5.0,61,-99.99,,,-99.99,,2013-02-14 03:42:00,
2013-02-13 19:51:00,45.0,31.0,-100.00,North,359,5.0,6.0,58,-99.99,,,-99.99,,2013-02-14 03:51:00,
2013-02-13 20:01:00,44.0,30.0,-100.00,North,357,5.0,7.0,58,-99.99,,,-99.99,,2013-02-14 04:01:00,
2013-02-13 20:11:00,44.0,30.0,-100.00,North,0,4.0,7.0,58,-99.99,,,-99.99,,2013-02-14 04:11:00,
2013-02-13 20:21:00,44.0,30.0,-100.00,North,349,4.0,6.0,57,-99.99,,,-99.99,,2013-02-14 04:21:00,
2013-02-13 20:31:00,44.0,29.0,-100.00,NNW,342,5.0,7.0,55,-99.99,,,-99.99,,2013-02-14 04:31:00,
2013-02-13 20:41:00,46.0,29.0,-100.00,North,352,4.0,6.0,52,-99.99,,,-99.99,,2013-02-14 04:41:00,
2013-02-13 20:51:00,46.0,29.0,-100.00,North,9,4.0,6.0,52,-99.99,,,-99.99,,2013-02-14 04:51:00,
2013-02-13 21:01:00,46.0,29.0,-100.00,NNE,18,4.0,6.0,51,-99.99,,,-99.99,,2013-02-14 05:01:00,
2013-02-13 21:11:00,46.0,28.0,-100.00,NNE,26,3.0,5.0,50,-99.99,,,-99.99,,2013-02-14 05:11:00,
2013-02-13 21:21:00,46.0,27.0,-100.00,NNE,25,4.0,7.0,48,-99.99,,,-99.99,,2013-02-14 05:21:00,
2013-02-13 21:31:00,46.0,27.0,-100.00,North,5,4.0,6.0,47,-99.99,,,-99.99,,2013-02-14 05:31:00,
2013-02-13 21:41:00,46.0,26.0,-100.00,North,352,5.0,10.0,46,-99.99,,,-99.99,,2013-02-14 05:41:00,
2013-02-13 21:51:00,44.0,27.0,-100.00,North,349,5.0,8.0,50,-99.99,,,-99.99,,2013-02-14 05:51:00,
2013-02-13 22:01:00,43.0,26.0,-100.00,North,2,5.0,8.0,50,-99.99,,,-99.99,,2013-02-14 06:01:00,
2013-02-13 22:11:00,44.0,26.0,-100.00,North,351,5.0,8.0,48,-99.99,,,-99.99,,2013-02-14 06:11:00,
2013-02-13 22:21:00,44.0,24.0,-100.00,North,352,4.0,6.0,45,-99.99,,,-99.99,,2013-02-14 06:21:00,
2013-02-13 22:31:00,46.0,23.0,-100.00,NNW,345,5.0,7.0,40,-99.99,,,-99.99,,2013-02-14 06:31:00,
2013-02-13 22:41:00,45.0,24.0,-100.00,North,353,5.0,7.0,43,-99.99,,,-99.99,,2013-02-14 06:41:00,
2013-02-13 22:51:00,45.0,24.0,-100.00,North,353,5.0,7.0,43,-99.99,,,-99.99,,2013-02-14 06:51:00,
2013-02-13 23:01:00,45.0,22.0,-100.00,North,6,6.0,9.0,40,-99.99,,,-99.99,,2013-02-14 07:01:00,
2013-02-13 23:11:00,45.0,22.0,-100.00,North,2,6.0,9.0,39,-99.99,,,-99.99,,2013-02-14 07:11:00,
2013-02-13 23:21:00,44.0,22.0,-100.00,North,10,6.0,10.0,41,-99.99,,,-99.99,,2013-02-14 07:21:00,
2013-02-13 23:31:00,45.0,22.0,-100.00,North,1,5.0,9.0,39,-99.99,,,-99.99,,2013-02-14 07:31:00,
2013-02-13 23:41:00,46.0,21.0,-100.00,North,355,3.0,7.0,36,-99.99,,,-99.99,,2013-02-14 07:41:00,
2013-02-13 23:51:00,47.0,19.0,-100.00,North,357,1.0,3.0,33,-99.99,,,-99.99,,2013-02-14 07:51:00,